Weather History for KUES - October, 2013

Change the Weather History Date:

Tuesday, October 8, 2013

  Actual Average Record
Temperature  
Mean Temperature 54 °F -  
Max Temperature 71 °F 64 °F 85 °F (1993)
Min Temperature 37 °F 45 °F 25 °F (1987)
Degree Days  
Heating Degree Days 11    
Growing Degree Days 4 (Base 50)    
Moisture  
Dew Point 44 °F    
Average Humidity 80    
Maximum Humidity 100    
Minimum Humidity 35    
Precipitation  
Precipitation 0.00 in - - ()
Sea Level Pressure  
Sea Level Pressure 30.14 in    
Wind  
Wind Speed 2 mph (SSE)    
Max Wind Speed 9 mph    
Max Gust Speed -    
Visibility 10 miles    
Events      
Averages and records for this station are not official NWS values.
T = Trace of Precipitation, MM = Missing Value Source: NWS Daily Summary

Daily Weather History Graph

Daily Weather History Graph

Search for Another Location

Airport or City:

Trip Planner

Search our weather history database for the weather conditions in past years. The results will help you decide how hot, cold, wet, or windy it might be!

Date:

Astronomy

Oct. 08, 2013 Rise Set
Actual Time 6:58 AM CDT 6:21 PM CDT
Civil Twilight 6:30 AM CDT 6:49 PM CDT
Nautical Twilight 5:57 AM CDT 7:22 PM CDT
Astronomical Twilight 5:24 AM CDT 7:55 PM CDT
Moon 10:58 AM CDT (10/8) 8:52 PM CDT (10/8)
Length of Visible Light 12h 19m
Length of Day
11h 22m
Waxing Crescent, 16% of the Moon is Illuminated
Oct 8
Waxing Crescent
Oct 11
First Quarter
Oct 18
Full
Oct 26
Last Quarter
Nov 3
New

Hourly Weather History & Observations

Time (CDT) Temp. Dew Point Humidity Pressure Visibility Wind Dir Wind Speed Gust Speed Precip Events Conditions
12:15 AM 42.8 °F 41.0 °F 93% 30.10 in 10.0 mi Calm Calm - N/A   Clear
12:35 AM 41.0 °F 41.0 °F 100% 30.10 in 10.0 mi Calm Calm - N/A   Clear
12:55 AM 41.0 °F 41.0 °F 100% 30.10 in 10.0 mi Calm Calm - N/A   Clear
1:15 AM 42.8 °F 41.0 °F 93% 30.11 in 10.0 mi Calm Calm - N/A   Clear
1:35 AM 41.0 °F 41.0 °F 100% 30.11 in 10.0 mi Calm Calm - N/A   Clear
1:55 AM 39.2 °F 39.2 °F 100% 30.11 in 7.0 mi Calm Calm - N/A   Clear
2:15 AM 37.4 °F 37.4 °F 100% 30.11 in 10.0 mi Calm Calm - N/A   Clear
2:35 AM 41.0 °F 41.0 °F 100% 30.11 in 10.0 mi Calm Calm - N/A   Clear
2:55 AM 41.0 °F 41.0 °F 100% 30.11 in 10.0 mi Calm Calm - N/A   Clear
3:15 AM 41.0 °F 39.2 °F 93% 30.11 in 10.0 mi Calm Calm - N/A   Clear
3:35 AM 41.0 °F 41.0 °F 100% 30.12 in 10.0 mi Calm Calm - N/A   Clear
3:55 AM 39.2 °F 39.2 °F 100% 30.12 in 10.0 mi Calm Calm - N/A   Clear
4:15 AM 41.0 °F 39.2 °F 93% 30.12 in 7.0 mi Calm Calm - N/A   Clear
4:35 AM 39.2 °F 39.2 °F 100% 30.13 in 10.0 mi Calm Calm - N/A   Clear
4:55 AM 37.4 °F 37.4 °F 100% 30.13 in 10.0 mi Calm Calm - N/A   Clear
5:15 AM 39.2 °F 39.2 °F 100% 30.13 in 10.0 mi Calm Calm - N/A   Clear
5:35 AM 37.4 °F 37.4 °F 100% 30.14 in 7.0 mi Calm Calm - N/A   Clear
6:45 AM 37.4 °F 37.4 °F 100% 30.15 in 10.0 mi Calm Calm - N/A   Clear
7:45 AM 41.0 °F 41.0 °F 100% 30.16 in 10.0 mi Calm Calm - N/A   Clear
8:45 AM 50.0 °F 46.4 °F 87% 30.17 in 10.0 mi Calm Calm - N/A   Clear
9:45 AM 59.0 °F 44.6 °F 59% 30.18 in 10.0 mi SSE 5.8 mph - N/A   Clear
10:45 AM 64.4 °F 64.4 °F 100% 30.18 in 10.0 mi South 5.8 mph - N/A   Partly Cloudy
11:45 AM 66.2 °F 46.4 °F 49% 30.17 in 10.0 mi South 9.2 mph - N/A   Partly Cloudy
12:45 PM 69.8 °F 46.4 °F 43% 30.16 in 10.0 mi South 6.9 mph - N/A   Clear
1:45 PM 71.6 °F 46.4 °F 41% 30.14 in 10.0 mi South 6.9 mph - N/A   Clear
2:45 PM 71.6 °F 44.6 °F 38% 30.13 in 10.0 mi South 8.1 mph - N/A   Clear
3:45 PM 71.6 °F 42.8 °F 35% 30.12 in 10.0 mi South 5.8 mph - N/A   Clear
4:45 PM 71.6 °F 42.8 °F 35% 30.12 in 10.0 mi South 6.9 mph - N/A   Clear
5:45 PM 69.8 °F 44.6 °F 40% 30.12 in 10.0 mi South 4.6 mph - N/A   Clear
6:45 PM 62.6 °F 51.8 °F 68% 30.13 in 10.0 mi SE 6.9 mph - N/A   Scattered Clouds
7:45 PM 60.8 °F 51.8 °F 72% 30.14 in 10.0 mi SSE 6.9 mph - N/A   Scattered Clouds
8:45 PM 57.2 °F 50.0 °F 77% 30.15 in 10.0 mi SSE 6.9 mph - N/A   Scattered Clouds
9:15 PM 57.2 °F 50.0 °F 77% 30.15 in 10.0 mi SSE 8.1 mph - N/A   Clear
9:35 PM 55.4 °F 48.2 °F 77% 30.15 in 10.0 mi SSE 6.9 mph - N/A   Clear
9:55 PM 55.4 °F 48.2 °F 77% 30.15 in 10.0 mi SSE 6.9 mph - N/A   Clear
10:15 PM 55.4 °F 48.2 °F 77% 30.16 in 10.0 mi SSE 5.8 mph - N/A   Clear
10:35 PM 55.4 °F 46.4 °F 72% 30.16 in 10.0 mi SSE 6.9 mph - N/A   Clear
10:55 PM 55.4 °F 46.4 °F 72% 30.16 in 10.0 mi SSE 8.1 mph - N/A   Clear
11:15 PM 55.4 °F 46.4 °F 72% 30.16 in 10.0 mi SSE 6.9 mph - N/A   Clear
11:35 PM 57.2 °F 46.4 °F 67% 30.16 in 10.0 mi South 6.9 mph - N/A   Clear
11:55 PM 57.2 °F 46.4 °F 67% 30.16 in 10.0 mi South 6.9 mph - N/A   Clear